Location: Geçitköy
(36.7327°N, 29.8010°E)
Time: 18:37:48
(UTC+00:00)

Cosmos 1703 - Pass Details

Date: 12 January 2026
Orbit: 414 x 425 km, 82.5° (Epoch: 10 February)

Event Time Altitude Azimuth Distance (km) Brightness Sun altitude
Rises 16:18:38 0° 192° (SSW) 2,395 7.0 -14.5°
Reaches altitude 10° 16:20:41 10° 195° (SSW) 1,532 6.0 -14.9°
Maximum altitude 16:23:59 64° 278° (W) 484 3.2 -15.5°
Drops below altitude 10° 16:27:19 10° 1° (N) 1,541 5.4 -16.2°
Enters shadow 16:28:09 - 2° (N) 1,886 5.9 -16.3°
